Flag Weather past 2 weeks in Chesapeake, Virginia, U.S.A.

Now
45 °F

Passing clouds.


Feels Like: 45 °F
Forecast: 34 / 48 °F
Wind: No wind

Location: Chesapeake Municipal Airport

Current Time: Nov 27, 2014 at 5:24:19 PM

Latest Report: Nov 27, 2014 at 4:55 PM


Visibility: 10 mi

Pressure: 30.06 "Hg

Humidity: 93%

Dew point: 43 °F

Location of ChesapeakeLocation

Historic Weather in Chesapeake — Graph

°F

Chesapeake temperature yesterday

Maximum temperature yesterday: 55 °F (at 12:15 AM)
Minimum temperature yesterday: 41 °F (at 6:15 PM)
Average temperature yesterday: 48 °F

Past Weeks' High & Low Weather Summary

 TemperatureHumidityPressure
High79 °F (Nov 24, 12:35 PM)100% (Nov 13, 5:55 PM)30.58 "Hg (Nov 13, 5:55 PM)
Low19 °F (Nov 22, 6:55 AM)24% (Nov 22, 2:35 PM)29.57 "Hg (Nov 17, 5:55 PM)
Average47 °F73%30.14 "Hg
* Reported Nov 12 4:15 PM — Nov 27 4:15 PM, Chesapeake, Weather by CustomWeather, © 2014

Note: Actual official high and low records may vary slightly from our data, if they occured in-between our weather recording intervals... More about our weather records

Advertising

Chesapeake weather history for previous 24 hours

 ConditionsComfort  
Time TempWeatherWind HumidityBarometerVisibility
4:15 PM
Nov 27
46 °FCloudy.3 mph93%30.05 "Hg10 mi
3:55 PM46 °FCloudy.5 mph93%30.05 "Hg10 mi
3:35 PM46 °FMostly cloudy.5 mph93%30.04 "Hg10 mi
3:15 PM45 °FMostly cloudy.No wind93%30.03 "Hg10 mi
2:55 PM45 °FLight rain. Mostly cloudy.5 mph93%30.04 "Hg10 mi
2:35 PM45 °FLight rain. Cloudy.7 mph93%30.03 "Hg10 mi
2:15 PM45 °FLight rain. Cloudy.7 mph93%30.03 "Hg10 mi
1:55 PM45 °FLight rain. Cloudy.7 mph93%30.02 "Hg10 mi
1:35 PM46 °FDrizzle. Cloudy.8 mph87%30.02 "Hg10 mi
1:15 PM46 °FMore clouds than sun.3 mph87%30.02 "Hg10 mi
12:55 PM46 °FMostly cloudy.No wind93%30.02 "Hg10 mi
12:35 PM46 °FCloudy.5 mph93%30.02 "Hg10 mi
12:15 PM46 °FMostly cloudy.3 mph93%30.02 "Hg10 mi
11:55 AM46 °FLight rain. More clouds than sun.3 mph87%30.03 "Hg10 mi
11:15 AM45 °FLight rain. More clouds than sun.No wind93%30.05 "Hg10 mi
10:55 AM45 °FLight rain. Cloudy.No wind93%30.05 "Hg10 mi
10:15 AM45 °FLight rain. Mostly cloudy.No wind93%30.06 "Hg10 mi
9:55 AM45 °FMostly cloudy.No wind93%30.06 "Hg10 mi
9:35 AM43 °FDrizzle. Overcast.No wind100%30.06 "Hg10 mi
9:15 AM43 °FLight rain. Overcast.3 mph100%30.07 "Hg10 mi
8:55 AM43 °FLight rain. Overcast.No wind100%30.07 "Hg10 mi
8:35 AM43 °FLight rain. More clouds than sun.No wind93%30.07 "Hg10 mi
8:15 AM43 °FLight rain. Mostly cloudy.No wind93%30.07 "Hg10 mi
7:55 AM41 °FLight rain. Cloudy.No wind100%30.07 "Hg10 mi
7:35 AM41 °FMostly cloudy.No wind100%30.07 "Hg10 mi
7:15 AM41 °FMostly cloudy.No wind93%30.07 "Hg10 mi
6:55 AM39 °FDrizzle. More clouds than sun.No wind100%30.07 "Hg10 mi
6:35 AM39 °FOvercast.No wind100%30.07 "Hg10 mi
6:15 AM39 °FOvercast.No wind100%30.07 "Hg10 mi
5:55 AM39 °FOvercast.No wind100%30.07 "Hg10 mi
5:35 AM39 °FOvercast.No wind100%30.07 "Hg10 mi
5:15 AM39 °FMostly cloudy.No wind100%30.06 "Hg10 mi
4:55 AM39 °FMostly cloudy.No wind100%30.06 "Hg10 mi
4:35 AM37 °FOvercast.No wind100%30.07 "Hg10 mi
4:15 AM37 °FOvercast.No wind100%30.06 "Hg10 mi
3:55 AM37 °FOvercast.No wind100%30.07 "Hg7 mi
3:15 AM36 °FFog.No wind100%30.06 "Hg4 mi
2:55 AM37 °FClear.No wind100%30.06 "Hg7 mi
2:15 AM37 °FFog.No wind100%30.06 "Hg3 mi
1:55 AM37 °FClear.No wind100%30.07 "Hg10 mi
1:35 AM37 °FClear.No wind100%30.08 "Hg10 mi
1:15 AM39 °FClear.No wind93%30.07 "Hg10 mi
12:55 AM39 °FClear.No wind100%30.07 "Hg10 mi
12:35 AM39 °FPassing clouds.5 mph100%30.07 "Hg10 mi
12:15 AM43 °FPassing clouds.No wind87%30.05 "Hg10 mi
11:55 PM
Nov 26
43 °FOvercast.7 mph93%30.06 "Hg10 mi
11:35 PM43 °FOvercast.5 mph93%30.04 "Hg10 mi
11:15 PM43 °FOvercast.6 mph87%30.04 "Hg10 mi
10:55 PM43 °FOvercast.7 mph93%30.06 "Hg10 mi
10:35 PM43 °FOvercast.7 mph93%30.06 "Hg10 mi
10:15 PM43 °FOvercast.8 mph93%30.05 "Hg10 mi
9:55 PM43 °FOvercast.9 mph93%30.04 "Hg10 mi
9:15 PM43 °FOvercast.9 mph100%30.02 "Hg10 mi
8:55 PM43 °FDrizzle. Mostly cloudy.6 mph93%30.00 "Hg10 mi
8:15 PM43 °FFog.6 mph93%29.99 "Hg4 mi
7:55 PM43 °FOvercast.6 mph100%29.98 "Hg10 mi
7:15 PM41 °FOvercast.8 mph100%29.96 "Hg10 mi
6:55 PM41 °FOvercast.10 mph100%29.95 "Hg10 mi
6:15 PM41 °FOvercast.14 mph100%29.92 "Hg10 mi
5:55 PM43 °FMostly cloudy.13 mph100%29.92 "Hg10 mi
5:35 PM43 °FOvercast.14 mph100%29.91 "Hg10 mi
5:15 PM43 °FMostly cloudy.15 mph100%29.91 "Hg10 mi
Weather by CustomWeather, © 2014

See weather overviewHow to use our weather pages